Meteo Giornale » Osservazioni meteo Danimarca » Koebenhavn-Kastrup

ore: 19:50 - Osservazioni Meteo Koebenhavn-Kastrup
Lat. 55° 37' N Lon. 12° 39' E Alt. 5 metri s.l.m.

poco_nuvoloso

17 °C

Poco Nuvoloso

Temp. 24 Ore

14 °C

20 °C

Ovest/Sud-Ovest

9.3 Km/h

Dew point 15 °C

Umidità 88 %

Visibilità  10 Km

Il sole sorge alle ore 06:14

Il sole tramonta alle ore 20:04

Data e Ora Cielo e Fenomeni T °C DP °C Um. % Pres. hPa Vis. km Vento km/h
Oggi h: 19:50 poco_nuvoloso Poco Nuvoloso 17 15 88 1013 10 O/SO 9.3
Oggi h: 19:20 molto_nuvoloso Molto Nuvoloso 18 14 77 1013 10 O/SO 7.4
Oggi h: 18:50 sereno Sereno 18 16 88 1013 10 O 7.4
Oggi h: 18:20 sereno Sereno 18 15 82 1013 10 O 11.1
Oggi h: 17:50 molto_nuvoloso Molto Nuvoloso 17 15 88 1013 10 O/NO 11.1
Oggi h: 17:20 coperto_pioggia Pioggia 17 16 93 1013 10 SO 16.7
Oggi h: 16:50 coperto_pioggia Pioggia 18 15 82 1013 10 SO 22.2
Oggi h: 16:20 molto_nuvoloso Molto Nuvoloso 18 15 82 1012 10 SO 22.2
Oggi h: 15:50 molto_nuvoloso Molto Nuvoloso 20 14 68 1012 10 SO 20.3
Oggi h: 15:20 molto_nuvoloso Molto Nuvoloso 20 13 64 1012 10 O/SO 14.8
Oggi h: 14:50 molto_nuvoloso Molto Nuvoloso 20 13 64 1012 10 O/NO 13
Oggi h: 14:20 nuvoloso_piovaschi Pioggia 20 15 72 1012 10 O/SO 16.7
Oggi h: 13:50 molto_nuvoloso Molto Nuvoloso 19 14 72 1012 10 SO 14.8
Oggi h: 13:20 molto_nuvoloso Molto Nuvoloso 18 14 77 1012 10 O 11.1
Oggi h: 12:50 molto_nuvoloso Molto Nuvoloso 20 15 72 1012 10 O 14.8
Oggi h: 12:20 molto_nuvoloso Molto Nuvoloso 17 15 88 1012 10 O/SO 16.7
Oggi h: 11:50 nuvoloso Nuvoloso 19 14 72 1012 10 O/SO 18.5
Oggi h: 11:20 molto_nuvoloso Molto Nuvoloso 19 14 72 1011 10 O 18.5
Oggi h: 10:50 molto_nuvoloso Molto Nuvoloso 18 15 82 1011 10 O 20.3
Oggi h: 10:20 molto_nuvoloso Molto Nuvoloso 18 15 82 1011 10 O 18.5
Oggi h: 09:50 molto_nuvoloso Molto Nuvoloso 18 15 82 1011 10 O 11.1
Oggi h: 09:20 molto_nuvoloso Molto Nuvoloso 17 15 88 1010 10 O 11.1
Oggi h: 08:50 molto_nuvoloso Molto Nuvoloso 16 16 100 1010 10 O 13
Oggi h: 08:20 molto_nuvoloso Molto Nuvoloso 16 16 100 1010 10 O 13
Oggi h: 07:50 molto_nuvoloso Molto Nuvoloso 16 16 100 1010 10 O 13
Oggi h: 07:20 molto_nuvoloso Molto Nuvoloso 16 16 100 1010 10 O/SO 11.1
Oggi h: 06:50 poco_nuvoloso Poco Nuvoloso 15 15 100 1009 10 O/SO 13
Oggi h: 06:20 nuvoloso Nuvoloso 15 15 100 1009 10 O/SO 11.1
Oggi h: 05:50 molto_nuvoloso Molto Nuvoloso 15 15 100 1009 10 O/SO 13
Oggi h: 05:20 nuvoloso Nuvoloso 15 15 100 1009 10 O/SO 13
Oggi h: 04:50 nuvoloso Nuvoloso 14 14 100 1009 10 O/SO 11.1
Oggi h: 04:20 poco_nuvoloso Poco Nuvoloso 14 14 100 1009 10 O/SO 11.1
Oggi h: 03:50 poco_nuvoloso Poco Nuvoloso 14 14 100 1009 10 O/SO 11.1
Oggi h: 03:20 sereno Sereno 14 14 100 1009 10 O/SO 9.3
Oggi h: 02:50 poco_nuvoloso Poco Nuvoloso 15 15 100 1009 10 O/SO 13
Oggi h: 02:20 molto_nuvoloso Molto Nuvoloso 15 15 100 1008 10 O 13
Oggi h: 01:50 molto_nuvoloso Molto Nuvoloso 15 15 100 1008 10 SO 11.1
Oggi h: 01:20 coperto Coperto 16 16 100 1008 10 SO 7.4
Oggi h: 00:50 nuvoloso_piovaschi Pioggia 16 16 100 1008 10 SO 7.4
Oggi h: 00:22 nuvoloso_piovaschi Pioggia 16 16 100 1008 5 SO 13
Ieri h: 23:50 molto_nuvoloso Molto Nuvoloso 16 16 100 1008 10 S/SO 11.1
Ieri h: 23:20 molto_nuvoloso Molto Nuvoloso 16 15 93 1008 10 S/SO 13
Ieri h: 22:50 molto_nuvoloso Molto Nuvoloso 16 15 93 1008 10 S/SO 11.1
Ieri h: 22:20 molto_nuvoloso Molto Nuvoloso 16 15 93 1008 10 S/SO 9.3
Ieri h: 21:50 coperto Coperto 16 15 93 1008 10 S/SO 13
Ieri h: 21:20 molto_nuvoloso Molto Nuvoloso 16 15 93 1008 10 S/SO 9.3
Ieri h: 20:50 molto_nuvoloso Molto Nuvoloso 15 14 93 1008 10 S/SO 11.1